Change the Weather History Date:

Thursday, August 22, 2013

  Actual Average (KFWA) Record (KFWA)
Temperature  
Mean Temperature 73 °F 71 °F  
Max Temperature 78 °F 82 °F 98 °F (1936)
Min Temperature 68 °F 60 °F 46 °F (1923)
Degree Days  
Heating Degree Days 0 0  
Month to date heating degree days 0  
Since 1 June heating degree days 32  
Since 1 July heating degree days 3  
Cooling Degree Days 8 6  
Month to date cooling degree days 158  
Year to date cooling degree days 664  
Since 1 June cooling degree days 607  
Growing Degree Days 23 (Base 50)    
Moisture  
Dew Point 66 °F    
Average Humidity 82    
Maximum Humidity 94    
Minimum Humidity 69    
Precipitation  
Precipitation 0.08 in 0.11 in 2.33 in (2014)
Month to date precipitation 2.63  
Year to date precipitation 25.83  
Snow  
Snow 0.00 in 0.00 in 0.00 in (2002)
Month to date snowfall 0.0  
Since 1 June snowfall 0.0  
Since 1 July snowfall 0.0  
Snow Depth -    
Sea Level Pressure  
Sea Level Pressure 30.07 in    
Wind  
Wind Speed 4 mph (West)    
Max Wind Speed 20 mph    
Max Gust Speed 26 mph    
Visibility 8 miles    
Events Rain    
T = Trace of Precipitation, MM = Missing Value Source: NWS Daily Summary

Daily Weather History Graph

Daily Weather History Graph

Search for Another Location

Airport or City:

Trip Planner

Search our weather history database for the weather conditions in past years. The results will help you decide how hot, cold, wet, or windy it might be!

Date:

Astronomy

Aug. 22, 2013 Rise Set
Actual Time 6:56 AM EDT 8:28 PM EDT
Civil Twilight 6:27 AM EDT 8:57 PM EDT
Nautical Twilight 5:52 AM EDT 9:32 PM EDT
Astronomical Twilight 5:15 AM EDT 10:09 PM EDT
Moon 9:09 PM EDT (8/22) 8:46 AM EDT (8/22)
Length of Visible Light 14h 29m
Length of Day
13h 31m
Waning Gibbous, 97% of the Moon is Illuminated
Aug 22
Waning Gibbous
Aug 28
Last Quarter
Sep 5
New
Sep 12
First Quarter
Sep 19
Full

Hourly Weather History & Observations

Time (EDT) Temp. Dew Point Humidity Pressure Visibility Wind Dir Wind Speed Gust Speed Precip Events Conditions
12:15 AM 69.8 °F 64.4 °F 83% 30.07 in 10.0 mi Calm Calm - N/A   Clear
12:35 AM 71.6 °F 64.4 °F 78% 30.07 in 10.0 mi SSW 3.5 mph - N/A   Clear
12:55 AM 69.8 °F 64.4 °F 83% 30.06 in 10.0 mi SSW 3.5 mph - N/A   Clear
1:15 AM 71.6 °F 64.4 °F 78% 30.08 in 10.0 mi SW 3.5 mph - N/A   Clear
1:35 AM 71.6 °F 64.4 °F 78% 30.07 in 10.0 mi Calm Calm - N/A   Clear
1:55 AM 69.8 °F 64.4 °F 83% 30.08 in 10.0 mi Calm Calm - N/A   Scattered Clouds
2:15 AM 71.6 °F 64.4 °F 78% 30.08 in 10.0 mi Calm Calm - N/A   Scattered Clouds
2:35 AM 71.6 °F 64.4 °F 78% 30.09 in 10.0 mi West 3.5 mph - N/A   Mostly Cloudy
2:55 AM 71.6 °F 64.4 °F 78% 30.10 in 10.0 mi WNW 9.2 mph - N/A   Overcast
3:15 AM 71.6 °F 64.4 °F 78% 30.10 in 10.0 mi WNW 5.8 mph - N/A   Mostly Cloudy
3:35 AM 71.6 °F 64.4 °F 78% 30.09 in 10.0 mi NNW 8.1 mph - N/A Rain Rain
3:55 AM 69.8 °F 64.4 °F 83% 30.09 in 7.0 mi WNW 8.1 mph - N/A Rain Rain
4:15 AM 69.8 °F 66.2 °F 88% 30.08 in 5.0 mi WNW 4.6 mph - 0.05 in Rain Rain
4:35 AM 69.8 °F 66.2 °F 88% 30.07 in 5.0 mi West 3.5 mph - 0.07 in Rain Light Rain
4:55 AM 69.8 °F 66.2 °F 88% 30.03 in 4.0 mi South 3.5 mph - 0.08 in Rain Rain
5:15 AM 69.8 °F 66.2 °F 88% 30.02 in 5.0 mi SSW 5.8 mph - N/A   Light Drizzle
5:35 AM 69.8 °F 66.2 °F 88% 30.03 in 3.0 mi SSW 3.5 mph - N/A   Clear
5:55 AM 68.0 °F 66.2 °F 94% 30.03 in 3.0 mi Calm Calm - N/A   Clear
6:15 AM 68.0 °F 66.2 °F 94% 30.03 in 3.0 mi Calm Calm - N/A   Clear
6:35 AM 68.0 °F 64.4 °F 88% 30.06 in 3.0 mi West 3.5 mph - N/A   Clear
6:55 AM 68.0 °F 64.4 °F 88% 30.06 in 2.0 mi Calm Calm - N/A   Clear
7:15 AM 68.0 °F 64.4 °F 88% 30.07 in 1.5 mi WSW 3.5 mph - N/A   Mist
7:35 AM 68.0 °F 64.4 °F 88% 30.08 in 2.0 mi West 3.5 mph - N/A   Clear
7:55 AM 68.0 °F 66.2 °F 94% 30.08 in 1.8 mi WSW 3.5 mph - N/A   Mist
8:15 AM 69.8 °F 66.2 °F 88% 30.08 in 2.0 mi West 3.5 mph - N/A   Scattered Clouds
8:35 AM 69.8 °F 66.2 °F 88% 30.08 in 2.5 mi SW 3.5 mph - N/A   Mostly Cloudy
8:55 AM 69.8 °F 68.0 °F 94% 30.08 in 3.0 mi SW 4.6 mph - N/A   Scattered Clouds
9:15 AM 71.6 °F 68.0 °F 88% 30.08 in 4.0 mi WSW 4.6 mph - N/A   Scattered Clouds
9:35 AM 71.6 °F 68.0 °F 88% 30.08 in 5.0 mi SW 6.9 mph - N/A   Haze
9:55 AM 71.6 °F 68.0 °F 88% 30.08 in 5.0 mi WSW 5.8 mph - N/A   Haze
10:15 AM 73.4 °F 68.0 °F 83% 30.08 in 7.0 mi WSW 5.8 mph - N/A   Mostly Cloudy
10:35 AM 73.4 °F 68.0 °F 83% 30.08 in 7.0 mi West 8.1 mph - N/A   Mostly Cloudy
10:55 AM 73.4 °F 68.0 °F 83% 30.08 in 7.0 mi West 4.6 mph - N/A   Mostly Cloudy
11:15 AM 77.0 °F 68.0 °F 74% 30.09 in 10.0 mi West 10.4 mph - N/A   Mostly Cloudy
11:35 AM 77.0 °F 68.0 °F 74% 30.09 in 10.0 mi West 6.9 mph - N/A   Scattered Clouds
11:55 AM 78.8 °F 68.0 °F 69% 30.09 in 10.0 mi WSW 6.9 mph - N/A   Clear
12:15 PM 78.8 °F 68.0 °F 69% 30.09 in 10.0 mi WSW 8.1 mph - N/A   Scattered Clouds
12:35 PM 78.8 °F 68.0 °F 69% 30.10 in 10.0 mi West 6.9 mph - N/A   Mostly Cloudy
12:55 PM 77.0 °F 68.0 °F 74% 30.09 in 10.0 mi WSW 5.8 mph - N/A   Scattered Clouds
1:15 PM 77.0 °F 68.0 °F 74% 30.10 in 10.0 mi West 6.9 mph - N/A   Scattered Clouds
1:35 PM 77.0 °F 68.0 °F 74% 30.10 in 10.0 mi WSW 5.8 mph - N/A   Mostly Cloudy
1:55 PM 77.0 °F 68.0 °F 74% 30.10 in 10.0 mi WSW 4.6 mph - N/A   Overcast
2:15 PM 78.8 °F 68.0 °F 69% 30.10 in 10.0 mi West 6.9 mph - N/A   Mostly Cloudy
2:35 PM 78.8 °F 68.0 °F 69% 30.09 in 10.0 mi West 6.9 mph - N/A   Scattered Clouds
2:55 PM 78.8 °F 68.0 °F 69% 30.09 in 10.0 mi WSW 8.1 mph - N/A   Scattered Clouds
3:15 PM 77.0 °F 68.0 °F 74% 30.10 in 10.0 mi WSW 8.1 mph - N/A   Mostly Cloudy
3:35 PM 75.2 °F 68.0 °F 78% 30.09 in 10.0 mi West 13.8 mph 20.7 mph N/A   Overcast
3:55 PM 71.6 °F 64.4 °F 78% 30.09 in 7.0 mi WNW 19.6 mph 26.5 mph N/A Rain Light Rain
4:15 PM 71.6 °F 64.4 °F 78% 30.08 in 10.0 mi WNW 12.7 mph 18.4 mph N/A   Mostly Cloudy
4:35 PM 71.6 °F 66.2 °F 83% 30.08 in 10.0 mi WNW 9.2 mph - N/A   Scattered Clouds
4:55 PM 71.6 °F 64.4 °F 78% 30.08 in 10.0 mi WNW 10.4 mph - N/A   Scattered Clouds
5:15 PM 71.6 °F 64.4 °F 78% 30.08 in 10.0 mi NW 9.2 mph - N/A Rain Rain
5:35 PM 71.6 °F 66.2 °F 83% 30.08 in 10.0 mi North 5.8 mph - N/A   Light Drizzle
5:55 PM 71.6 °F 66.2 °F 83% 30.07 in 10.0 mi North 4.6 mph - N/A   Light Drizzle
6:15 PM 71.6 °F 66.2 °F 83% 30.06 in 10.0 mi North 5.8 mph - N/A   Light Drizzle
6:35 PM 71.6 °F 64.4 °F 78% 30.06 in 10.0 mi Calm Calm - N/A   Mostly Cloudy
6:55 PM 71.6 °F 64.4 °F 78% 30.05 in 10.0 mi Calm Calm - N/A   Overcast
7:15 PM 71.6 °F 64.4 °F 78% 30.05 in 10.0 mi Calm Calm - N/A   Mostly Cloudy
7:35 PM 69.8 °F 64.4 °F 83% 30.03 in 10.0 mi ESE 4.6 mph - N/A   Mostly Cloudy
7:55 PM 69.8 °F 64.4 °F 83% 30.04 in 10.0 mi Calm Calm - N/A   Scattered Clouds
8:15 PM 69.8 °F 64.4 °F 83% 30.03 in 10.0 mi Calm Calm - N/A   Clear
8:35 PM 69.8 °F 64.4 °F 83% 30.04 in 10.0 mi Calm Calm - N/A   Clear
8:55 PM 68.0 °F 64.4 °F 88% 30.04 in 10.0 mi Calm Calm - N/A   Clear
9:15 PM 68.0 °F 64.4 °F 88% 30.05 in 10.0 mi West 3.5 mph - N/A   Scattered Clouds
9:35 PM 68.0 °F 64.4 °F 88% 30.06 in 10.0 mi WNW 6.9 mph - N/A   Mostly Cloudy
9:55 PM 68.0 °F 64.4 °F 88% 30.07 in 10.0 mi West 4.6 mph - N/A   Overcast
10:15 PM 68.0 °F 64.4 °F 88% 30.08 in 10.0 mi West 5.8 mph - N/A   Overcast
10:35 PM 68.0 °F 64.4 °F 88% 30.08 in 10.0 mi West 6.9 mph - N/A   Overcast
10:55 PM 68.0 °F 64.4 °F 88% 30.08 in 10.0 mi WNW 6.9 mph - N/A   Overcast
11:15 PM 69.8 °F 64.4 °F 83% 30.08 in 10.0 mi WNW 6.9 mph - N/A   Overcast
11:35 PM 69.8 °F 64.4 °F 83% 30.09 in 10.0 mi WNW 6.9 mph - N/A   Overcast
11:55 PM 69.8 °F 64.4 °F 83% 30.09 in 10.0 mi WNW 5.8 mph - N/A   Overcast